[[{"header":{"parameterUnit":"m.s-1","parameterCategory":1,"la1":30.2991,"la2":30.254,"lo1":-89.0895,"lo2":-89.0444,"dy":0.0017,"dx":0.0017,"nx":28,"ny":28,"refTime":"2024-07-03T03:00:00:Z","depth":0,"parameterNumber":2,"parameterNumberName":"U-component_of_WINDS"},"data":[0,0,0,0,0,0,0,0,0,0,0,0,0,0,0,0,0,0,0,0,0,0,0,0,0,0,0,0,0,0,0,0,0,0,0,0,0,0,0,0,0,0,0,0,0,0,0,0,0,0,0,0,0,0,0,0,0,0,-1.6042,-1.6043,0,-1.6142,-1.6143,-1.6144,-1.6184,-1.6184,-1.6183,-1.6183,-1.6288,-1.6291,-1.6294,0,0,0,0,0,0,0,0,0,0,0,0,0,-1.5889,-1.5891,-1.6042,-1.6043,-1.6044,-1.6142,-1.6143,-1.6144,-1.6184,-1.6183,-1.6183,-1.6183,-1.6287,-1.6291,-1.6294,0,0,0,0,0,0,0,0,0,0,0,0,0,-1.5969,-1.5892,-1.6042,-1.6076,-1.608,-1.6141,-1.6143,-1.6145,-1.6184,-1.6183,-1.6183,-1.6183,-1.6286,-1.629,-1.6295,-1.6331,0,0,-1.6309,-1.6311,0,0,0,0,0,0,0,0,-1.5964,-1.5974,-1.6069,-1.6073,-1.6078,-1.615,-1.6128,-1.6207,-1.6184,-1.6144,-1.6183,-1.6183,-1.6243,-1.6251,-1.627,-1.6336,-1.634,-1.6309,-1.6312,-1.6314,-1.6315,0,0,0,0,0,0,0,-1.5959,-1.597,-1.6081,-1.6071,-1.6076,-1.6087,-1.6098,-1.6143,-1.6195,-1.6148,-1.6151,-1.6162,-1.6245,-1.6266,-1.6273,-1.6342,-1.6309,-1.6313,-1.6316,-1.6318,-1.6442,-1.6443,0,0,0,0,0,0,-1.5947,-1.5965,-1.6078,-1.6084,-1.6019,-1.609,-1.6102,-1.6127,-1.6194,-1.6204,-1.6162,-1.6164,-1.6258,-1.6268,-1.6277,-1.6324,-1.6314,-1.6318,-1.6321,-1.6442,-1.6442,-1.6443,0,0,0,0,0,0,-1.5943,-1.5957,-1.6074,-1.6026,-1.6042,-1.6093,-1.6121,-1.6129,-1.615,-1.6205,-1.6215,-1.6174,-1.6258,-1.6271,-1.6317,-1.6328,-1.632,-1.6324,-1.6441,-1.6442,-1.6443,-1.6417,0,0,0,0,0,0,-1.5939,-1.5955,-1.5968,-1.6026,-1.6044,-1.6112,-1.6122,-1.6132,-1.6158,-1.616,-1.6219,-1.6228,-1.6259,-1.631,-1.6322,-1.6334,-1.6328,-1.644,-1.6441,-1.6442,-1.6417,-1.6417,-1.6416,0,0,0,0,0,-1.5933,-1.5958,-1.5969,-1.5982,-1.6062,-1.6112,-1.6123,-1.6157,-1.6158,-1.6173,-1.6208,-1.6226,-1.6325,-1.6314,-1.6328,-1.6342,-1.644,-1.6441,-1.6442,-1.6417,-1.6417,-1.6416,0,0,0,0,0,0,-1.5902,-1.5966,-1.5979,-1.6023,-1.6061,-1.6119,-1.6138,-1.6156,-1.6196,-1.6197,-1.6239,-1.6251,-1.6294,-1.6323,-1.631,-1.638,-1.6384,-1.6388,-1.636,-1.636,-1.636,-1.6352,-1.6332,0,0,0,0,0,-1.5899,-1.5934,-1.5989,-1.6022,-1.6041,-1.6086,-1.6109,-1.6132,-1.6175,-1.6191,-1.623,-1.6271,-1.6312,-1.6338,-1.6378,-1.6421,-1.6435,-1.6438,-1.6437,-1.6437,-1.644,-1.6465,-1.6467,-1.6447,-1.6447,-1.6447,0,0,-1.5896,-1.5935,-1.5955,-1.6017,-1.6049,-1.6085,-1.6099,-1.6137,-1.6164,-1.6198,-1.6243,-1.6273,-1.6322,-1.6367,-1.6389,-1.6392,-1.6448,-1.6439,-1.6438,-1.6441,-1.6467,-1.6469,-1.647,-1.6448,-1.6448,-1.6448,0,0,-1.5907,-1.594,-1.5972,-1.6004,-1.6053,-1.6083,-1.609,-1.6145,-1.6166,-1.6212,-1.6238,-1.6272,-1.6341,-1.6375,-1.6401,-1.6425,-1.6443,-1.6437,-1.6436,-1.646,-1.6462,-1.6463,-1.6472,-1.6475,-1.644,-1.644,-1.644,0,-1.5897,-1.595,-1.5986,-1.6021,-1.6048,-1.6079,-1.6112,-1.6142,-1.6202,-1.622,-1.6223,-1.631,-1.6345,-1.6399,-1.6404,-1.6425,-1.6435,-1.6431,-1.6458,-1.646,-1.6463,-1.6471,-1.6475,-1.6439,-1.6439,-1.6439,-1.6439,0,-1.5935,-1.5972,-1.5992,-1.6048,-1.6077,-1.6111,-1.6152,-1.6178,-1.6198,-1.6228,-1.6276,-1.6319,-1.6368,-1.6383,-1.6404,-1.644,-1.644,-1.645,-1.6454,-1.6463,-1.6472,-1.6475,-1.6437,-1.6438,-1.6438,-1.6438,0,0,-1.593,-1.6004,-1.6011,-1.6037,-1.6093,-1.6123,-1.6159,-1.6206,-1.6227,-1.6268,-1.63,-1.6357,-1.6366,-1.6396,-1.6421,-1.6443,-1.6459,-1.645,-1.6452,-1.645,-1.6502,-1.6494,-1.6497,-1.6472,-1.6473,-1.6473,-1.6498,0,-1.5949,-1.6012,-1.6045,-1.6095,-1.613,-1.616,-1.6192,-1.623,-1.6259,-1.6294,-1.6327,-1.6367,-1.6376,-1.6394,-1.6417,-1.6452,-1.647,-1.6451,-1.6502,-1.6504,-1.6489,-1.6502,-1.6493,-1.6514,-1.6501,-1.6502,-1.6503,0,-1.5979,-1.6018,-1.6071,-1.6124,-1.614,-1.6167,-1.6213,-1.6246,-1.629,-1.631,-1.6343,-1.6368,-1.6408,-1.6409,-1.6465,-1.6451,-1.6475,-1.6495,-1.6497,-1.6503,-1.6503,-1.6508,-1.6522,-1.6525,-1.6508,-1.6508,-1.6508,0,-1.5969,-1.6035,-1.6076,-1.6097,-1.6159,-1.6178,-1.6205,-1.6249,-1.6275,-1.6316,-1.6334,-1.6379,-1.6404,-1.6439,-1.6476,-1.6474,-1.6529,-1.6533,-1.6547,-1.6546,-1.6557,-1.6556,-1.6574,-1.6572,-1.6572,-1.6572,-1.6572,0,-1.5987,-1.6018,-1.6072,-1.6097,-1.6133,-1.6171,-1.6207,-1.6236,-1.6275,-1.6307,-1.6337,-1.6367,-1.6413,-1.6449,-1.6478,-1.652,-1.6532,-1.6549,-1.6556,-1.6546,-1.6544,-1.6562,-1.6561,-1.6572,-1.6572,-1.6572,-1.6572,0,-1.5982,-1.6019,-1.6065,-1.612,-1.6135,-1.6159,-1.6207,-1.6232,-1.6263,-1.6303,-1.6315,-1.6363,-1.6406,-1.6446,-1.6505,-1.6525,-1.6567,-1.6577,-1.6551,-1.6555,-1.6567,-1.6565,-1.6597,-1.6604,-1.6597,-1.6597,-1.6597,0,-1.5991,-1.6016,-1.6073,-1.6095,-1.6121,-1.6158,-1.6185,-1.6224,-1.6251,-1.6303,-1.6323,-1.6369,-1.6407,-1.6476,-1.6517,-1.6562,-1.6572,-1.6581,-1.6579,-1.6568,-1.6573,-1.6571,-1.6573,-1.658,-1.658,-1.658,-1.658,0,-1.6003,-1.6019,-1.6056,-1.6099,-1.613,-1.6167,-1.6204,-1.6221,-1.6267,-1.6296,-1.6341,-1.637,-1.643,-1.6475,-1.6524,-1.6554,-1.6575,-1.658,-1.6585,-1.6575,-1.6559,-1.6568,-1.655,-1.6579,-1.6579,-1.6579,-1.6579,-1.6579,-1.6005,-1.6028,-1.6072,-1.6112,-1.6144,-1.6178,-1.6205,-1.6238,-1.6275,-1.6325,-1.6346,-1.6391,-1.6437,-1.6505,-1.6534,-1.6571,-1.6575,-1.6583,-1.6585,-1.6587,-1.6584,-1.6553,-1.658,-1.658,-1.658,-1.658,-1.658,0,-1.6018,-1.6047,-1.6084,-1.6134,-1.6166,-1.6182,-1.6224,-1.625,-1.6289,-1.6328,-1.6365,-1.6416,-1.646,-1.6504,-1.6551,-1.6572,-1.6583,-1.6583,-1.6582,-1.6588,-1.6578,-1.6568,-1.6573,-1.6573,-1.6573,-1.6573,-1.6573,-1.6573,-1.6029,-1.6069,-1.6091,-1.6147,-1.6177,-1.622,-1.6243,-1.6275,-1.6307,-1.6362,-1.6398,-1.6426,-1.6468,-1.6518,-1.6559,-1.6571,-1.6587,-1.6584,-1.6599,-1.6589,-1.6589,-1.6589,-1.658,-1.6587,-1.6587,-1.6606,-1.6606,-1.6607]},{"header":{"parameterUnit":"m.s-1","parameterCategory":1,"la1":30.2991,"la2":30.254,"lo1":-89.0895,"lo2":-89.0444,"dy":0.0017,"dx":0.0017,"nx":28,"ny":28,"refTime":"2024-07-03T03:00:00:Z","depth":0,"parameterNumber":3,"parameterNumberName":"V-component_of_WINDS"},"data":[0,0,0,0,0,0,0,0,0,0,0,0,0,0,0,0,0,0,0,0,0,0,0,0,0,0,0,0,0,0,0,0,0,0,0,0,0,0,0,0,0,0,0,0,0,0,0,0,0,0,0,0,0,0,0,0,0,0,2.5181,2.5182,0,2.5263,2.5264,2.5265,2.5253,2.5251,2.525,2.5248,2.5331,2.5335,2.5338,0,0,0,0,0,0,0,0,0,0,0,0,0,2.5012,2.5015,2.5181,2.5182,2.5183,2.5263,2.5264,2.5266,2.5253,2.5251,2.5249,2.5248,2.533,2.5334,2.5338,0,0,0,0,0,0,0,0,0,0,0,0,0,2.5089,2.5016,2.5181,2.5187,2.5188,2.5263,2.5264,2.5266,2.5253,2.5251,2.5249,2.5247,2.5329,2.5334,2.5339,2.5414,0,0,2.5355,2.5357,0,0,0,0,0,0,0,0,2.5084,2.5095,2.5185,2.5186,2.5188,2.5246,2.5235,2.5315,2.5254,2.5228,2.5248,2.5246,2.5304,2.5312,2.5332,2.5417,2.5421,2.5356,2.5359,2.5361,2.5363,0,0,0,0,0,0,0,2.5079,2.5091,2.5214,2.5186,2.5188,2.5184,2.5193,2.525,2.5277,2.523,2.523,2.524,2.5305,2.5326,2.5333,2.5422,2.5355,2.536,2.5363,2.5365,2.5572,2.5574,0,0,0,0,0,0,2.5072,2.5087,2.5211,2.5216,2.513,2.5189,2.5199,2.5229,2.5276,2.5282,2.5241,2.5239,2.5318,2.5327,2.5336,2.5426,2.5361,2.5366,2.5369,2.557,2.5572,2.5575,0,0,0,0,0,0,2.5069,2.5083,2.5208,2.5151,2.5167,2.5194,2.5229,2.5232,2.5254,2.5285,2.5289,2.5259,2.5317,2.5329,2.5394,2.5428,2.5368,2.5373,2.5567,2.557,2.5574,2.5606,0,0,0,0,0,0,2.5064,2.5082,2.5111,2.5152,2.517,2.5265,2.5231,2.5235,2.5263,2.526,2.5302,2.5307,2.5316,2.5386,2.5399,2.5435,2.5377,2.5564,2.5568,2.5573,2.5602,2.561,2.5617,0,0,0,0,0,2.5058,2.5117,2.5113,2.5128,2.5207,2.5267,2.5277,2.5287,2.5266,2.5295,2.5314,2.5306,2.5423,2.5393,2.5408,2.5445,2.5562,2.5567,2.5572,2.5598,2.5608,2.5617,0,0,0,0,0,0,2.508,2.5123,2.5118,2.5193,2.5227,2.5265,2.5302,2.5298,2.5338,2.5334,2.5344,2.5353,2.5419,2.5439,2.5405,2.5519,2.5489,2.5497,2.5504,2.5514,2.5521,2.5515,2.5382,0,0,0,0,0,2.5093,2.5139,2.5174,2.5236,2.5253,2.5275,2.5301,2.5306,2.5341,2.5355,2.538,2.5414,2.5458,2.5487,2.5529,2.5604,2.5613,2.5637,2.5645,2.5651,2.5658,2.5698,2.5709,2.5592,2.5592,2.5592,0,0,2.5122,2.5151,2.5179,2.5241,2.5268,2.5314,2.5287,2.5337,2.5372,2.5363,2.5426,2.5445,2.5483,2.5554,2.5586,2.5572,2.5692,2.5657,2.5662,2.5666,2.5704,2.5715,2.5725,2.5596,2.5595,2.5594,0,0,2.5197,2.5224,2.5278,2.5305,2.5346,2.536,2.5372,2.5412,2.5424,2.5487,2.5481,2.5522,2.5598,2.5626,2.565,2.5734,2.5727,2.5747,2.5787,2.5826,2.5835,2.5843,2.5872,2.5883,2.5754,2.5754,2.5754,0,2.5227,2.5297,2.5307,2.5358,2.5385,2.5379,2.5433,2.5459,2.5511,2.553,2.5513,2.5608,2.5634,2.571,2.573,2.575,2.5764,2.5743,2.5833,2.5841,2.5849,2.5877,2.5888,2.5757,2.5756,2.5756,2.5756,0,2.5332,2.538,2.5419,2.547,2.5501,2.5554,2.557,2.5601,2.5602,2.5618,2.5682,2.5712,2.576,2.5778,2.5781,2.5855,2.5845,2.5831,2.5801,2.5862,2.5889,2.5899,2.576,2.5759,2.5758,2.5758,0,0,2.5424,2.5478,2.5492,2.5515,2.5558,2.5596,2.5647,2.5694,2.572,2.5756,2.5799,2.5863,2.585,2.5877,2.5882,2.5916,2.598,2.5898,2.5899,2.5912,2.6063,2.6073,2.6085,2.5976,2.5978,2.598,2.6059,0,2.5503,2.5595,2.5604,2.5686,2.573,2.5724,2.5769,2.58,2.5816,2.5855,2.5872,2.5917,2.5896,2.5913,2.5946,2.5965,2.601,2.596,2.6015,2.6017,2.6006,2.6099,2.611,2.6184,2.607,2.6071,2.6073,0,2.5608,2.5646,2.5733,2.5769,2.5788,2.5828,2.5871,2.5909,2.5944,2.5952,2.5982,2.5983,2.6035,2.6003,2.6075,2.604,2.6063,2.6076,2.6079,2.6084,2.6048,2.6106,2.6208,2.6218,2.6089,2.6088,2.6087,0,2.5666,2.5739,2.58,2.5819,2.5863,2.5891,2.5911,2.5944,2.5971,2.6009,2.6026,2.6069,2.6093,2.6126,2.6138,2.6114,2.6209,2.6178,2.6217,2.6217,2.6237,2.6236,2.6343,2.6253,2.6253,2.6252,2.6252,0,2.5753,2.5806,2.5826,2.5864,2.5922,2.5932,2.5989,2.6007,2.6036,2.6076,2.6074,2.6112,2.6125,2.6165,2.6174,2.6231,2.6242,2.625,2.6252,2.625,2.6249,2.6266,2.6261,2.6255,2.6255,2.6254,2.6254,0,2.5828,2.5844,2.5909,2.5945,2.5955,2.5997,2.6027,2.6063,2.6077,2.6128,2.614,2.6163,2.6209,2.6224,2.628,2.6286,2.6354,2.6351,2.6342,2.6342,2.638,2.6376,2.6501,2.6518,2.6417,2.6418,2.6419,0,2.5882,2.5922,2.5962,2.5989,2.6009,2.6053,2.608,2.6091,2.612,2.6162,2.6192,2.6238,2.6275,2.635,2.6371,2.6414,2.6412,2.6453,2.6418,2.6415,2.6412,2.6409,2.6413,2.6459,2.646,2.6461,2.6462,0,2.5977,2.5982,2.6022,2.6065,2.6098,2.6132,2.6165,2.6187,2.6202,2.6234,2.6282,2.6311,2.6368,2.6413,2.6457,2.6476,2.6472,2.6472,2.6484,2.6482,2.6475,2.6479,2.6359,2.647,2.6469,2.6468,2.6468,2.6468,2.6043,2.6078,2.6111,2.6155,2.6181,2.6211,2.6246,2.6265,2.6304,2.6352,2.6355,2.6406,2.6439,2.6497,2.6518,2.6558,2.6546,2.6563,2.6567,2.657,2.6573,2.6469,2.6566,2.6566,2.6566,2.6565,2.6565,0,2.6137,2.6158,2.6198,2.6244,2.6278,2.6271,2.6306,2.6336,2.6381,2.6412,2.6448,2.6502,2.6546,2.657,2.6614,2.6641,2.664,2.6652,2.665,2.6654,2.6581,2.6567,2.6652,2.6652,2.6652,2.6652,2.6652,2.6652,2.619,2.6248,2.6258,2.6329,2.6349,2.6399,2.642,2.6447,2.6472,2.6532,2.6569,2.6584,2.6612,2.6657,2.6697,2.6703,2.6719,2.6732,2.6737,2.6668,2.6659,2.6651,2.6638,2.6736,2.6736,2.6806,2.6807,2.6807]}]]